Weather in Bafoussam

Cameroon     5°28′41″N   10°25′33″E
temp.,
°C
wind,
m/s
gust,
m/s
humid.,
%
clouds,
%
prec.,
mm/h
press.,
hPa
HPBL,
m
16 may, mon
mon1601:00+18w119297 0.3 101612
04:00+18w119153 0.1 101412
07:00+18w119220 0.1 101646
10:00+25ene24635 0.2 1015839
13:00+26ese356429 2.3 10131352
16:00+26ene236161 2.3 10101291
19:00+19ne2697100 7.4 1014214
22:00+19wsw1195100 3.3 101622
17 may, tue
tue1701:00+18wsw1193100 3.6 101512
04:00+18wnw1194100 0.7 101411
07:00+19se119363 1.3 101538
10:00+22ese238479 1.9 1016352
13:00+24e117691 6.1 1013752
16:00+22n0187100 4.4 101153
19:00+19sw1192100 5.8 101314
22:00+19wsw1194100 0.9 101513
18 may, wed
wed1801:00+19sse0096100 0.9 101414
04:00+18se1197100 0.1 101317
07:00+18ssw0097100 0.3 101428
10:00+21sse018658 0.1 1015392
13:00+25ese237147 1.1 1012986
16:00+24e127281 3.1 1010794
19:00+20ese018899 8.2 101311
22:00+18sse119598 2.3 101517
19 may, thu
thu1901:00+18wsw1196100 3.9 101412
04:00+17wsw1195100 0.0 101311
07:00+18w119598 0.3 101445
10:00+23ese128434 2.4 1015372
13:00+23se227942 5.9 1013633
16:00+23ese227969 1.6 1011666
19:00+19s119477 5.1 101319
22:00+18wsw119499 0.5 101512
20 may, fri
fri2001:00+18wsw0095100 0.9 101511
04:00+18n0096100 0.9 101414
07:00+18nne0097100 3.0 101639
10:00+21e128892 2.3 1016274
13:00+23ese1280100 5.9 1014611
16:00+21e1291100 4.0 1012102
19:00+19sse1194100 6.4 101412
22:00+18s119793 0.5 101630